Printer-friendly version

IAU Minor Planet Center

Minor Planet Center

MPEC 2001-V46: 2001 UQ163

The following Minor Planet Electronic Circular may be linked-to from your own Web pages, but must not otherwise be redistributed electronically.


Read MPEC 2001-V45 Read MPEC 2001-V47


M.P.E.C. 2001-V46                                Issued 2001 Nov. 13, 18:40 UT

     The Minor Planet Electronic Circulars contain information on unusual
         minor planets and routine data on comets.  They are published
   on behalf of Commission 20 of the International Astronomical Union by the
          Minor Planet Center, Smithsonian Astrophysical Observatory,
                          Cambridge, MA 02138, U.S.A.

             Prepared using the Tamkin Foundation Computer Network

                              MPC@CFA.HARVARD.EDU
          URL http://cfa-www.harvard.edu/iau/mpc.html  ISSN 1523-6714

                                  2001 UQ163

Observations:
     K01UG3Q* C2001 10 26.48360 03 31 51.11 +14 00 09.1          21.7 V      691
     K01UG3Q  C2001 10 26.49881 03 31 49.49 +14 00 12.6          21.9 V      691
     K01UG3Q  C2001 10 26.51399 03 31 47.84 +14 00 16.7          22.0 V      691
     K01UG3Q  C2001 10 27.40117 03 30 15.18 +14 04 01.6          21.9 V      691
     K01UG3Q  C2001 10 27.40514 03 30 14.76 +14 04 02.6          22.2 V      691
     K01UG3Q  C2001 10 27.40985 03 30 14.24 +14 04 03.4          21.7 V      691
     K01UG3Q HC2001 10 27.47318 03 30 07.29 +14 04 19.7          21.6 V      691
     K01UG3Q HC2001 10 27.47711 03 30 06.83 +14 04 21.4          21.5 V      691
     K01UG3Q HC2001 10 27.48176 03 30 06.36 +14 04 22.8          21.0 V      691
     K01UG3Q  C2001 11 11.40110 03 04 38.29 +14 55 56.1          21.6 V      291
     K01UG3Q  C2001 11 11.40921 03 04 37.51 +14 55 57.7          22.1 V      291
     K01UG3Q  C2001 11 11.41689 03 04 36.72 +14 55 58.9          21.9 V      291

Observer details:
291 LPL/Spacewatch II.  Observers A. S. Descour, T. H. Bressi.  1.8-m
    Spacewatch telescope.
691 Steward Observatory, Kitt Peak.  Observer A. F. Tubbiolo.  0.9-m
    Spacewatch telescope.

Orbital elements:
2001 UQ163
Epoch 2001 Oct. 18.0 TT = JDT 2452200.5                 MPC
M  29.23303              (2000.0)            P               Q
n   0.32101839     Peri.  262.26598     +0.75070267     +0.65409442
a   2.1124322      Node    56.83042     -0.55400884     +0.69979303
e   0.4776724      Incl.    6.36301     -0.35988846     +0.28714146
P   3.07           H   21.3           G   0.15
From 12 observations 2001 Oct. 26-Nov. 11.

Ephemeris:
2001 UQ163               a,e,i = 2.11, 0.48, 6                   q = 1.1034
Date    TT    R. A. (2000) Decl.     Delta      r     Elong.  Phase     V
2001 11 07    03 11.78   +14 42.7    0.606    1.595   174.2     3.6    21.6
2001 11 17    02 56.51   +15 11.7    0.675    1.659   171.3     5.2    22.0
2001 11 27    02 45.40   +15 39.4    0.766    1.723   158.9    11.9    22.6

Timothy B. Spahr             (C) Copyright 2001 MPC           M.P.E.C. 2001-V46

Read MPEC 2001-V45 Read MPEC 2001-V47


Our Web policy. Index to the CBAT/MPC/ICQ pages.


Valid HTML 4.01!